Change the Weather History Date:

Saturday, May 3, 2014

  Actual Average (KABQ) Record (KABQ)
Temperature  
Mean Temperature 53 °F 62 °F  
Max Temperature 78 °F 75 °F 92 °F (1947)
Min Temperature 28 °F 49 °F 28 °F (1915)
Degree Days  
Heating Degree Days 12 4  
Month to date heating degree days 14  
Since 1 July heating degree days 4118  
Cooling Degree Days 0 1  
Month to date cooling degree days 3  
Year to date cooling degree days 10  
Growing Degree Days 3 (Base 50)    
Moisture  
Dew Point 16 °F    
Average Humidity 25    
Maximum Humidity 50    
Minimum Humidity 10    
Precipitation  
Precipitation 0.00 in 0.02 in 0.68 in (1941)
Month to date precipitation 0.05  
Year to date precipitation 2.09  
Snow  
Snow 0.00 in - - ()
Month to date snowfall  
Since 1 July snowfall  
Snow Depth -    
Sea Level Pressure  
Sea Level Pressure 30.16 in    
Wind  
Wind Speed 4 mph (SW)    
Max Wind Speed 16 mph    
Max Gust Speed 29 mph    
Visibility 10 miles    
Events      
T = Trace of Precipitation, MM = Missing Value Source: NWS Daily Summary

Daily Weather History Graph

Daily Weather History Graph

Search for Another Location

Airport or City:

Trip Planner

Search our weather history database for the weather conditions in past years. The results will help you decide how hot, cold, wet, or windy it might be!

Date:

Astronomy

May. 03, 2014 Rise Set
Actual Time 6:11 AM MDT 7:51 PM MDT
Civil Twilight 5:43 AM MDT 8:18 PM MDT
Nautical Twilight 5:11 AM MDT 8:51 PM MDT
Astronomical Twilight 4:36 AM MDT 9:26 PM MDT
Moon 9:45 AM MDT (5/3) 11:58 PM MDT (5/3)
Length of Visible Light 14h 34m
Length of Day
13h 40m
Waxing Crescent, 20% of the Moon is Illuminated
May 3
Waxing Crescent
May 6
First Quarter
May 14
Full
May 21
Last Quarter
May 28
New

Hourly Weather History & Observations

Time (MDT) Temp. Windchill Dew Point Humidity Pressure Visibility Wind Dir Wind Speed Gust Speed Precip Events Conditions
12:15 AM 37.6 °F 35.1 °F 11.3 °F 34% 30.17 in 10.0 mi East 3.5 mph - N/A   Clear
12:35 AM 44.1 °F - 14.0 °F 30% 30.17 in 10.0 mi Calm Calm - N/A   Clear
12:55 AM 43.7 °F - 13.8 °F 30% 30.17 in 10.0 mi Calm Calm - N/A   Clear
1:15 AM 36.1 °F 33.5 °F 11.1 °F 36% 30.17 in 10.0 mi ENE 3.5 mph - N/A   Clear
1:35 AM 35.8 °F 33.0 °F 11.5 °F 37% 30.17 in 10.0 mi ENE 3.5 mph - N/A   Clear
1:55 AM 34.3 °F 29.2 °F 11.5 °F 39% 30.17 in 10.0 mi East 5.8 mph - N/A   Clear
2:15 AM 35.1 °F - 11.3 °F 37% 30.16 in 10.0 mi Calm Calm - N/A   Clear
2:35 AM 34.0 °F - 11.5 °F 39% 30.16 in 10.0 mi Calm Calm - N/A   Clear
2:55 AM 35.2 °F - 10.8 °F 36% 30.16 in 10.0 mi Calm Calm - N/A   Clear
3:15 AM 30.2 °F 26.7 °F 9.5 °F 42% 30.16 in 10.0 mi ENE 3.5 mph - N/A   Clear
3:35 AM 31.5 °F 25.8 °F 11.7 °F 44% 30.16 in 10.0 mi East 5.8 mph - N/A   Clear
3:55 AM 31.8 °F 28.5 °F 11.7 °F 43% 30.17 in 10.0 mi ESE 3.5 mph - N/A   Clear
4:15 AM 32.4 °F - 12.2 °F 43% 30.17 in 10.0 mi Calm Calm - N/A   Clear
4:35 AM 30.9 °F 27.5 °F 12.0 °F 46% 30.17 in 10.0 mi ESE 3.5 mph - N/A   Clear
4:55 AM 29.8 °F - 10.6 °F 45% 30.17 in 10.0 mi Calm Calm - N/A   Clear
5:15 AM 28.4 °F - 10.4 °F 47% 30.17 in 10.0 mi Calm Calm - N/A   Clear
5:35 AM 29.3 °F - 11.1 °F 47% 30.17 in 10.0 mi Calm Calm - N/A   Clear
5:55 AM 29.5 °F - 11.5 °F 47% 30.18 in 10.0 mi Calm Calm - N/A   Clear
6:15 AM 30.9 °F - 12.6 °F 47% 30.19 in 10.0 mi Calm Calm - N/A   Clear
6:35 AM 28.2 °F - 11.7 °F 50% 30.19 in 10.0 mi Calm Calm - N/A   Clear
6:55 AM 33.4 °F - 13.1 °F 43% 30.20 in 10.0 mi Calm Calm - N/A   Clear
7:15 AM 36.5 °F - 12.9 °F 38% 30.21 in 10.0 mi Calm Calm - N/A   Clear
7:35 AM 40.6 °F - 14.2 °F 34% 30.21 in 10.0 mi Calm Calm - N/A   Clear
7:55 AM 45.5 °F - 16.0 °F 31% 30.22 in 10.0 mi Calm Calm - N/A   Clear
8:15 AM 49.8 °F - 18.0 °F 28% 30.22 in 10.0 mi Calm Calm - N/A   Clear
8:35 AM 54.3 °F - 18.9 °F 25% 30.22 in 10.0 mi Calm Calm - N/A   Clear
8:55 AM 56.7 °F - 17.6 °F 22% 30.22 in 10.0 mi Calm Calm - N/A   Clear
9:15 AM 59.0 °F - 17.6 °F 20% 30.22 in 10.0 mi Calm Calm - N/A   Clear
9:35 AM 60.3 °F - 17.6 °F 19% 30.22 in 10.0 mi Calm Calm - N/A   Clear
9:55 AM 62.6 °F - 18.3 °F 18% 30.22 in 10.0 mi Calm Calm - N/A   Clear
10:15 AM 64.2 °F - 18.9 °F 18% 30.22 in 10.0 mi Calm Calm - N/A   Clear
10:35 AM 66.6 °F - 19.4 °F 17% 30.22 in 10.0 mi Calm Calm - N/A   Clear
10:55 AM 69.6 °F - 20.1 °F 15% 30.22 in 10.0 mi Calm Calm - N/A   Clear
11:15 AM 71.6 °F - 20.5 °F 15% 30.22 in 10.0 mi NNW 5.8 mph - N/A   Clear
11:35 AM 72.0 °F - 20.3 °F 14% 30.21 in 10.0 mi Calm Calm - N/A   Clear
11:55 AM 72.9 °F - 19.8 °F 13% 30.20 in 10.0 mi NW 12.7 mph 19.6 mph N/A   Clear
12:15 PM 73.9 °F - 19.9 °F 13% 30.19 in 10.0 mi WNW 8.1 mph - N/A   Clear
12:35 PM 74.1 °F - 20.1 °F 13% 30.18 in 10.0 mi West 11.5 mph - N/A   Clear
12:55 PM 74.7 °F - 20.3 °F 13% 30.17 in 10.0 mi WNW 11.5 mph - N/A   Clear
1:15 PM 74.3 °F - 19.6 °F 13% 30.17 in 10.0 mi WNW 6.9 mph 10.4 mph N/A   Clear
1:35 PM 75.9 °F - 19.9 °F 12% 30.17 in 10.0 mi NW 12.7 mph 21.9 mph N/A   Clear
1:55 PM 76.3 °F - 20.8 °F 13% 30.16 in 10.0 mi West 12.7 mph 19.6 mph N/A   Clear
2:15 PM 76.5 °F - 20.5 °F 12% 30.16 in 10.0 mi West 16.1 mph 19.6 mph N/A   Clear
2:35 PM 76.8 °F - 19.8 °F 12% 30.16 in 10.0 mi WSW 11.5 mph 18.4 mph N/A   Clear
2:55 PM 77.0 °F - 19.0 °F 11% 30.14 in 10.0 mi West 13.8 mph 28.8 mph N/A   Clear
3:15 PM 77.9 °F - 19.8 °F 11% 30.14 in 10.0 mi SSW 11.5 mph 17.3 mph N/A   Clear
3:35 PM 78.3 °F - 18.5 °F 11% 30.13 in 10.0 mi West 10.4 mph 19.6 mph N/A   Clear
3:55 PM 77.7 °F - 17.4 °F 10% 30.12 in 10.0 mi SW 6.9 mph 17.3 mph N/A   Clear
4:15 PM 77.4 °F - 16.3 °F 10% 30.12 in 10.0 mi WSW 9.2 mph 18.4 mph N/A   Clear
4:35 PM 77.4 °F - 17.2 °F 10% 30.12 in 10.0 mi West 12.7 mph 21.9 mph N/A   Clear
4:55 PM 77.9 °F - 17.1 °F 10% 30.12 in 10.0 mi West 15.0 mph 20.7 mph N/A   Clear
5:15 PM 77.5 °F - 16.5 °F 10% 30.11 in 10.0 mi West 11.5 mph 17.3 mph N/A   Clear
5:35 PM 77.4 °F - 18.5 °F 11% 30.11 in 10.0 mi West 9.2 mph 16.1 mph N/A   Clear
5:55 PM 77.0 °F - 18.3 °F 11% 30.11 in 10.0 mi SW 13.8 mph - N/A   Clear
6:15 PM 76.5 °F - 17.8 °F 11% 30.11 in 10.0 mi West 15.0 mph - N/A   Clear
6:35 PM 75.9 °F - 17.2 °F 11% 30.11 in 10.0 mi WSW 9.2 mph - N/A   Clear
6:55 PM 75.2 °F - 17.2 °F 11% 30.10 in 10.0 mi West 9.2 mph - N/A   Clear
7:15 PM 73.0 °F - 16.7 °F 12% 30.11 in 10.0 mi SW 6.9 mph - N/A   Clear
7:35 PM 68.7 °F - 17.4 °F 14% 30.11 in 10.0 mi SW 5.8 mph - N/A   Clear
7:55 PM 63.7 °F - 16.3 °F 16% 30.11 in 10.0 mi SW 5.8 mph - N/A   Clear
8:15 PM 60.8 °F - 15.6 °F 17% 30.11 in 10.0 mi SSW 5.8 mph - N/A   Clear
8:35 PM 57.4 °F - 16.7 °F 20% 30.12 in 10.0 mi South 4.6 mph - N/A   Clear
8:55 PM 55.4 °F - 16.9 °F 22% 30.13 in 10.0 mi South 5.8 mph - N/A   Clear
9:15 PM 52.2 °F - 17.6 °F 26% 30.13 in 10.0 mi SSW 5.8 mph - N/A   Clear
9:35 PM 51.8 °F - 17.1 °F 25% 30.14 in 10.0 mi SSW 5.8 mph - N/A   Clear
9:55 PM 50.7 °F - 16.2 °F 25% 30.14 in 10.0 mi SSW 4.6 mph - N/A   Clear
10:15 PM 49.3 °F - 15.6 °F 26% 30.15 in 10.0 mi SSW 5.8 mph - N/A   Clear
10:35 PM 48.6 °F - 16.3 °F 28% 30.15 in 10.0 mi SSW 6.9 mph - N/A   Clear
10:55 PM 48.4 °F - 16.3 °F 28% 30.15 in 10.0 mi SSW 9.2 mph - N/A   Clear
11:15 PM 47.3 °F - 16.5 °F 29% 30.15 in 10.0 mi South 8.1 mph - N/A   Clear
11:35 PM 50.2 °F - 15.8 °F 26% 30.15 in 10.0 mi South 9.2 mph - N/A   Clear
11:55 PM 50.9 °F - 15.6 °F 25% 30.15 in 10.0 mi SSE 12.7 mph - N/A   Clear